Regional Weather Roundup
Issued by NWS Northern Indiana

Home | Current Version | Previous Version | Text Only | Print | Product List | Glossary Off
Versions: 1 2 3 4 5 6 7 8 9 10 11 12 13 14 15 16 17 18 19 20 21 22 23 24 25 26 27 28 29 30 31 32 33 34 35 36 37 38 39 40 41 42 43 44 45 46 47 48 49 50

000
ASUS43 KIWX 161810
RWRIWX

KIWX WEATHER ROUNDUP
NATIONAL WEATHER SERVICE NORTHERN INDIANA
200 PM EDT TUE SEP 16 2014

NOTE: "FAIR" INDICATES FEW OR NO CLOUDS BELOW 12,000 FEET WITH NO
SIGNIFICANT WEATHER AND/OR OBSTRUCTIONS TO VISIBILITY.

* THESE STATIONS ARE NOT UNDER NWS QUALITY CONTROL. THEY ALSO MAY NOT
  REPORT WEATHER SUCH AS PRECIPITATION OR FOG.

INZ001>027-161900-
NORTHERN INDIANA

CITY           SKY/WX    TMP DP  RH WIND       PRES   REMARKS
GARY*          MOSUNNY   64  46  52 N12       30.18F
VALPARAISO     CLOUDY    63  48  58 VRB3      30.18F
6HR MIN TEMP:  52; 6HR MAX TEMP:  63;

MICHIGAN CITY* CLOUDY    61  50  67 NW7       30.18F
LAPORTE*       MOSUNNY   61  47  59 CALM      30.17F
6HR MIN TEMP:  45; 6HR MAX TEMP:  61;

KNOX*          PTSUNNY   62  45  52 E3        30.16F
6HR MIN TEMP:  41; 6HR MAX TEMP:  89;

SOUTH BEND     NOT AVBL
ELKHART*       PTSUNNY   63  43  48 CALM      30.17F
GOSHEN         MOSUNNY   64  45  49 MISG      30.16F
6HR MIN TEMP:  49; 6HR MAX TEMP:  64;

MONTICELLO*    MOSUNNY   61  45  54 CALM      30.17F
LOGANSPORT*    SUNNY     63  45  51 CALM      30.18F
ROCHESTER*     MOSUNNY   68  45  42 N6        30.17F
WARSAW*        PTSUNNY   63  43  48 SW3       30.16F
ANGOLA*        SUNNY     64  43  45 N7        30.15F
FORT WAYNE     MOSUNNY   63  49  60 NW8       30.17F
6HR MIN TEMP:  49; 6HR MAX TEMP:  63;

HUNTINGTON*    MOSUNNY   60  49  65 CALM      30.16F
6HR MIN TEMP:  47; 6HR MAX TEMP:  60;

PERU/GRISSOM   SUNNY     61  50  66 NE5       30.17F
6HR MIN TEMP:  50; 6HR MAX TEMP:  61;

MARION*        CLOUDY    60  47  64 CALM      30.17F
6HR MIN TEMP:  40; 6HR MAX TEMP:  90;


$$
INZ028>050-161900-
CENTRAL INDIANA

CITY           SKY/WX    TMP DP  RH WIND       PRES   REMARKS
LAFAYETTE      PTSUNNY   62  48  60 CALM      30.17F
6HR MIN TEMP:  50; 6HR MAX TEMP:  62;

KOKOMO*        SUNNY     64  45  48 NE7       30.17F
6HR MIN TEMP:  52; 6HR MAX TEMP:  64;

MUNCIE*        CLOUDY    60  48  64 N3        30.17S
6HR MIN TEMP:  51; 6HR MAX TEMP:  61;

INDIANAPOLIS   PTSUNNY   60  49  66 CALM      30.17F
6HR MIN TEMP:  53; 6HR MAX TEMP:  61;


$$
MIZ043>046-050>051-056>058-064>065-071>073-077>080-161900-
SOUTHWEST LOWER MICHIGAN

CITY           SKY/WX    TMP DP  RH WIND       PRES   REMARKS
BATTLE CREEK   PTSUNNY   62  46  55 W9        30.15F
6HR MIN TEMP:  47; 6HR MAX TEMP:  63;

BENTON HARBOR  MOSUNNY   62  47  57 W7        30.16F
6HR MIN TEMP:  41; 6HR MAX TEMP:  63;

COLDWATER*     SUNNY     65  42  43 NW5       30.15F
6HR MIN TEMP:  49; 6HR MAX TEMP:  65;

HILLSDALE*     MOSUNNY   63  40  42 W6        30.14F
6HR MIN TEMP:  50; 6HR MAX TEMP:  63;

HOLLAND        MOSUNNY   63  45  51 W7        30.17S
6HR MIN TEMP:  44; 6HR MAX TEMP:  64;

GRAND RAPIDS   PTSUNNY   65  46  50 W12       30.14F
6HR MIN TEMP:  44; 6HR MAX TEMP:  65;

KALAMAZOO      MOSUNNY   64  45  49 SW6       30.16F
6HR MIN TEMP:  43; 6HR MAX TEMP:  64;

STURGIS*       SUNNY     63  43  48 CALM      30.15F
THREE RIVERS*  CLOUDY    63  47  55 CALM      30.16S

$$
OHZ001>008-015>018-024>025-161900-
NORTHWEST OHIO

CITY           SKY/WX    TMP DP  RH WIND       PRES   REMARKS
WAUSEON*       PTSUNNY   61  46  59 CALM      30.15S
DEFIANCE       MOSUNNY   64  44  48 VRB3      30.15F
6HR MIN TEMP:  50; 6HR MAX TEMP:  64;

FINDLAY        CLOUDY    63  47  55 W7        30.14F
6HR MIN TEMP:  55; 6HR MAX TEMP:  64;

TOLEDO EXPRESS MOSUNNY   64  45  49 CALM      30.14F
6HR MIN TEMP:  51; 6HR MAX TEMP:  64;

TOLEDO METCALF MOSUNNY   61  44  53 W6        30.15F
6HR MIN TEMP:  52; 6HR MAX TEMP:  64;

LIMA           PTSUNNY   62  50  64 N6        30.15F
6HR MIN TEMP:  54; 6HR MAX TEMP:  63;


$$
&&



USA.gov is the U.S. government's official web portal to all federal, state and local government web resources and services.